Regional Weather Roundup
Issued by NWS

Home | Current Version | Previous Version | Graphics & Text | Print | Product List | Glossary On
Versions: 1 2 3 4 5 6 7 8 9 10 11 12 13 14 15 16 17 18 19 20 21 22 23 24 25 26 27 28 29 30 31 32 33 34 35 36 37 38 39 40 41 42 43 44 45 46 47 48 49 50
519
ASUS43 KDMX 251701
RWRIA

WEATHER ROUNDUP FOR IOWA
NATIONAL WEATHER SERVICE DES MOINES IA
1200 PM CDT MON SEP 25 2017

NOTE: "FAIR" INDICATES FEW OR NO CLOUDS BELOW 12,000 FEET WITH NO
SIGNIFICANT WEATHER AND/OR OBSTRUCTIONS TO VISIBILITY.

* - THESE STATIONS ARE NOT NWS STATIONS...THUS NOT UNDER NWS
QUALITY CONTROL.  THEY ALSO DO NOT REPORT WEATHER SUCH
AS PRECIPITATION OR FOG.

IAZ001>003-012>014-020>022-031>034-043>046-251800-
   NORTHWEST IOWA

CITY           SKY/WX    TMP DP  RH WIND       PRES   REMARKS
CARROLL *      CLOUDY    68  68 100 NE7       29.95F
CHEROKEE *     DRIZZLE   57  57 100 N12       29.99F
DENISON *      CLOUDY    66  66 100 NE7       29.97S
LE MARS *      CLOUDY    57  55  94 N10       30.01S
ORANGE CITY *  CLOUDY    55  55 100 NE7G16    30.01F FOG
SHELDON *      FOG       54  54 100 N10       30.01R VSB 1
SIOUX CITY     RAIN      57  57 100 N9        30.01R FOG
SPENCER        CLOUDY    57  55  93 N9        30.01F
STORM LAKE *   LGT RAIN  59  57  94 NE8       29.98F
$$

IAZ055>058-069>071-079>083-090>094-251800-
   SOUTHWEST IOWA

CITY           SKY/WX    TMP DP  RH WIND       PRES   REMARKS
ATLANTIC *     CLOUDY    73  68  83 NE12G17   29.93F
AUDUBON *      MOSUNNY   72  66  83 NE7       29.95F
CLARINDA *     SUNNY     82  68  61 VRB6G12   29.93F HX  85
COUNCIL BLFS * LGT RAIN  64  64 100 N3        29.97R
CRESTON *      SUNNY     82  66  57 S9        29.95F HX  85
HARLAN  *      CLOUDY    70  68  94 CALM      29.98S
LAMONI         SUNNY     82  67  60 VRB7      29.94F HX  84
RED OAK *      LGT RAIN  75  70  83 E3        29.92F
SHENANDOAH *   PTSUNNY   79  68  69 W8        29.92F HX  81
$$

IAZ047>049-059>061-072>074-084-251800-
   CENTRAL IOWA

CITY           SKY/WX    TMP DP  RH WIND       PRES   REMARKS
AMES           SUNNY     81  68  64 VRB5      29.94F HX  84
ANKENY *       MOSUNNY   81  68  65 VRB3      29.94F HX  83
BOONE *        MOSUNNY   75  66  73 N6        29.95F
CHARITON *     SUNNY     82  68  61 VRB3      29.94F HX  85
DES MOINES     MOSUNNY   83  67  58 CALM      29.92F HX  85
GRINNELL*      SUNNY     83  65  55 S3        29.96F HX  85
KNOXVILLE *    SUNNY     82  66  57 SE6       29.93F HX  85
MARSHALLTOWN   MOSUNNY   82  68  62 VRB6      29.93F HX  85
NEWTON *       SUNNY     82  66  57 S6        29.94F HX  85
PELLA *        SUNNY     84  64  49 CALM      29.95F HX  85
PERRY *          N/A     75  68  78 N6        29.96S
$$

IAZ004>006-015-016-023>025-035-036-251800-
   NORTH CENTRAL IOWA

CITY           SKY/WX    TMP DP  RH WIND       PRES   REMARKS
ALGONA *       DRIZZLE   63  63 100 N9        29.98F
CLARION *      CLOUDY    68  68 100 NE3       29.97F
ESTHERVILLE    LGT RAIN  55  55 100 N10       30.01R
FORT DODGE *   CLOUDY    67  64  90 E7        29.97F
MASON CITY     PTSUNNY   70  64  81 E7        29.98F
FOREST CITY *  LGT RAIN  70  64  83 N3        29.97S
WEBSTER CITY * CLOUDY    70  64  83 VRB5      29.96S
IOWA FALLS *     N/A     77  68  74 CALM      29.97S
$$

IAZ007>011-017>019-026>030-037>042-050>054-066-251800-
   NORTHEAST IOWA

CITY           SKY/WX    TMP DP  RH WIND       PRES   REMARKS
CEDAR RAPIDS   MOSUNNY   89  64  43 SE7         N/A  HX  90
CHARLES CITY *   N/A     70  70 100 CALM      29.95F
CLINTON *      SUNNY    N/A N/A N/A SE9       29.97F
DECORAH *      MOSUNNY   81  66  61 SE7       29.94F HX  83
DUBUQUE        SUNNY     83  65  54 S9        29.98F HX  85
MONTICELLO *   SUNNY     88  64  45 VRB7      29.95F HX  89
OELWEIN *      MOSUNNY   84  66  54 S9        29.95F HX  86
WATERLOO       CLOUDY    81  65  58 S6        29.93F HX  83
$$

IAZ064-065-067-068-078-251800-
   EAST CENTRAL IOWA

CITY           SKY/WX    TMP DP  RH WIND       PRES   REMARKS
DAVENPORT      SUNNY     84  66  54 S6        29.98F HX  86
IOWA CITY      SUNNY     88  64  44 S9        29.96F HX  89
MUSCATINE *    SUNNY     86  64  48 SE7       29.96S HX  87
QUAD CITIES    SUNNY     85  66  53 S6        29.96F HX  87
$$

IAZ062-063-075>077-085>089-095>099-251800-
   SOUTHEAST IOWA

CITY           SKY/WX    TMP DP  RH WIND       PRES   REMARKS
BURLINGTON     MOSUNNY   84  68  58 SE8       29.97F HX  87
FAIRFIELD *    MOSUNNY   84  64  51 S7        29.95F HX  86
FORT MADISON * MOSUNNY   88  66  48 S5        29.97F HX  90
KEOKUK *       MOSUNNY   86  64  48 SW9       29.96F HX  87
OSKALOOSA *      N/A     85  64  48 SE9       29.95F HX  87
OTTUMWA        SUNNY     82  66  58 VRB5      29.95F HX  84
WASHINGTON *   SUNNY     86  63  45 SW7G14    29.96F HX  87
$$

ABBREVIATIONS USED IN REMARKS
   TC - TEMPERATURES IN CELSIUS
  WCI - WIND CHILL INDEX
   HX - HEAT INDEX
  VSB - VISIBILITY
$$





USA.gov is the U.S. government's official web portal to all federal, state and local government web resources and services.